Overview Statistics Trail Chart Weather Telemetry Raw packets
 

This is the latest recevied weather packets stored in our database for station/object IW1RID-3. If no packets are shown the sender has not sent any weather packets the latest 10 day(s).

<< 1 2 3 4 5 6 >>
Time Temp. Humidity Pressure Rain* Wind** Luminosity Snow
1788605075 29.44° C 68% 1076.2 hPa - - - -
1788603870 28.33° C 70% 1076.2 hPa - - - -
1788602665 29.44° C 69% 1076.2 hPa - - - -
1788601460 28.33° C 73% 1076.1 hPa - - - -
1788600254 27.78° C 75% 1076.2 hPa - - - -
1788599050 26.67° C 78% 1076.2 hPa - - - -
1788597845 26.67° C 76% 1076.2 hPa - - - -
1788596640 26.11° C 72% 1076.1 hPa - - - -
1788595436 25° C 74% 1076 hPa - - - -
1788594231 23.89° C 78% 1076 hPa - - - -
1788593026 23.89° C 79% 1075.7 hPa - - - -
1788591822 23.33° C 80% 1075.6 hPa - - - -
1788590617 22.78° C 81% 1075.4 hPa - - - -
1788589413 22.78° C 83% 1075.3 hPa - - - -
1788588208 22.22° C 84% 1075.4 hPa - - - -
1788587004 22.22° C 85% 1075.3 hPa - - - -
1788585800 21.67° C 86% 1075.1 hPa - - - -
1788584595 21.67° C 87% 1075.1 hPa - - - -
1788583390 21.67° C 86% 1074.9 hPa - - - -
1788582185 21.67° C 86% 1074.9 hPa - - - -
1788580981 22.22° C 84% 1075 hPa - - - -
1788579776 21.67° C 87% 1075.1 hPa - - - -
1788578572 21.67° C 86% 1075.1 hPa - - - -
1788577367 21.11° C 88% 1075.2 hPa - - - -
1788576162 21.11° C 87% 1075.1 hPa - - - -

* Rain since midnight (hover to see other rain measurements)
** Current wind speed in m/s (hover to see current wind gust speed)